Regional Weather Roundup
Issued by NWS

Home | Current Version | Previous Version | Graphics & Text | Print | Product List | Glossary On
Versions: 1 2 3 4 5 6 7 8 9 10 11 12 13 14 15 16 17 18 19 20 21 22 23 24 25 26 27 28 29 30 31 32 33 34 35 36 37 38 39 40 41 42 43 44 45 46 47 48 49 50
000
ASUS45 KTFX 011604
RWRMT
MONTANA HOURLY WEATHER ROUNDUP
NATIONAL WEATHER SERVICE GREAT FALLS MT
904 AM MST SUN FEB 1 2015

NOTE: "FAIR" INDICATES FEW OR NO CLOUDS BELOW 12000 FEET WITH NO
SIGNIFICANT WEATHER AND/OR OBSTRUCTIONS TO VISIBILITY.

* THESE STATIONS ARE NOT UNDER NWS QUALITY CONTROL. THEY DO NOT
   REPORT WEATHER SUCH AS PRECIPITATION OR FOG.

MTZ001>007-043-011700-
WEST OF THE DIVIDE
CITY           SKY/WX    TMP DP  RH WIND       PRES   REMARKS
KALISPELL      CLOUDY    19  16  88 N5        30.19F WCI  12
MISSOULA       CLOUDY    27  19  72 SE12      30.21F WCI  16
BUTTE          PTCLDY    12   9  88 CALM      30.14F
MULLAN PASS    LGT SNOW  21  18  88 S7        30.02F VSB 2    WCI  12
* ANACONDA     SUNNY     18  12  77 S8         N/A   WCI   8
* ESSEX        N/A        6   3  87 W1         N/A
* LINCOLN      N/A        8   4  84 N1         N/A
* LOOKOUT PASS N/A       23  22  96 S6         N/A   WCI  16
* POLSON       N/A       23  22  96 NE1        N/A
* RONAN APT    PTSUNNY   18  16  92 N/A        N/A
* SEELEY LAKE  N/A       18  12  77 SE1        N/A
* THOMP F APT  CLOUDY    14  10  84 N3G8       N/A
$$

MTZ008-052>055-011700-
SOUTHWEST MONTANA
CITY           SKY/WX    TMP DP  RH WIND       PRES   REMARKS
BOZEMAN        PTCLDY    14  10  84 W3        30.22F
DILLON         PTCLDY    14   9  80 CALM      30.18S
* W YELLOWSTON PTCLDY    15  12  88 W1         N/A
* THREE FORKS  PTCLDY    16  16 100 N/A        N/A
* BOULDER HILL N/A       11   7  84 SW14       N/A   WCI  -5
* MONIDA PASS  N/A        8   6  91 N1         N/A
* RAYNOLDS PAS N/A       10  -4  53 S2         N/A
* WHITEHALL    N/A       11   7  84 S1         N/A
* WISE RIVER   N/A        7   2  80 W3         N/A
$$

MTZ009>010-012-014-046-048-049-054-011700-
EAST SLOPES AND CENTRAL MONTANA
CITY           SKY/WX    TMP DP  RH WIND       PRES   REMARKS
CUT BANK       PTCLDY     1  -2  87 CALM      30.12F
GREAT FALLS    PTCLDY     5   3  91 CALM      30.16F
HELENA         PTCLDY    16  10  77 VRB3      30.24F
MALMSTROM AFB  PTCLDY    -4  -6  91 W3        30.19F
* DEARBORN     N/A        5   2  87 S2         N/A
* EAST GLACIER N/A       17  11  77 W10        N/A   WCI   5
* MONARCH      N/A        6   2  83 S8         N/A   WCI  -7
* PENDROY      N/A        9   6  87 SW7        N/A   WCI  -2
* ROGERS PASS  N/A        7   4  87 NW10G18    N/A   WCI  -7
* SWEET GRASS  N/A        1  -2  87 S20        N/A   WCI -21
$$

MTZ011-013-016-021-035-040-045-047-050-051-011700-
NORTH CENTRAL MONTANA
CITY           SKY/WX    TMP DP  RH WIND       PRES   REMARKS
HAVRE          SUNNY     -9 -13  82 E8        30.31F WCI -25
LEWISTOWN      PTCLDY     1  -2  87 SE9       30.18F WCI -14
* N BAR RANCH  SUNNY      7   0  73 CALM      30.20F
* CHESTER      N/A       -6 -12  75 NE1        N/A
* DENTON       N/A        7   4  87 SE7        N/A   WCI  -5
* GEYSER       N/A        3  -1  83 SW3        N/A
* JUDITH GAP   N/A        0  -2  91 S8         N/A   WCI -14
* LOMA         N/A       -7 -12  78 E3         N/A
$$

MTZ017>020-022>027-061-062-011700-
NORTHEAST MONTANA
CITY           SKY/WX    TMP DP  RH WIND       PRES   REMARKS
GLASGOW        SUNNY     -6  -9  87 E9        30.40F WCI -22
GLENDIVE       SUNNY     -8  -9  95 W3        30.44S
JORDAN         PTCLDY    -9 -13  82 CALM      30.38F
SIDNEY         SUNNY     -9 -26  42 CALM      30.51S
WOLF POINT     SUNNY     -6 -11  78 CALM      30.48F
* BEAVER HILL  N/A       -6 -11  78 SW2        N/A
* CIRCLE       N/A       -6 -10  82 N/A        N/A
* LINDSAY DVD  N/A       -8 -12  82 S1         N/A
* NAVAJO       N/A       -6 -10  82 SW10       N/A   WCI -23
* SACO         N/A      -13 -18  78 NE1        N/A
$$

MTZ028>042-056>058-011700-
SOUTHCENTRAL AND SOUTHEAST MONTANA
CITY           SKY/WX    TMP DP  RH WIND       PRES   REMARKS
BAKER          SUNNY     -6  -9  87 W7        30.39F WCI -20
BILLINGS       PTCLDY     7   3  83 S5        30.31F WCI  -2
LIVINGSTON     PTCLDY    12   9  88 CALM      30.19F
MILES CITY     PTCLDY    -2  -6  83 CALM      30.43S
* LAUREL APT   PTCLDY     3  -2  79 N/A        N/A
* ROUNDUP APT  SUNNY      7   0  73 N/A        N/A
* ALZADA       N/A       -2  -6  83 W4         N/A
* HYSHAM       N/A        6   2  83 W4         N/A
* LAME DEER    N/A        1  -3  83 W4         N/A
* REED POINT   N/A       11   8  88 NE6        N/A   WCI   1
* ROSCOE HILL  N/A        4   0  83 SE2        N/A
$$

REGIONAL REPORTS...DAKOTAS
CITY           SKY/WX    TMP DP  RH WIND       PRES   REMARKS
WILLISTON      PTCLDY    -8 -15  71 SW3       30.49F
DICKINSON      PTCLDY    -9 -13  82 CALM      30.39S
CROSBY         SUNNY     -2  -9  72 SW7       30.46F WCI -15
WATFORD CITY   SUNNY     -8 -13  78 SW5       30.45F WCI -20
BISMARCK       PTCLDY    -6 -18  55 N8        30.52F WCI -21
GRAND FORKS    PTSUNNY   -9 -18  64 N12       30.59R WCI -29
FARGO          PTCLDY    -6 -15  64 N18       30.52S WCI -29
BUFFALO SD     PTCLDY     0  -6  75 NW9       30.31R WCI -15
RAPID CITY     SUNNY      1  -2  87 N16       30.35R WCI -19
$$

REGIONAL REPORTS...WYOMING/IDAHO/WASHINGTON
CITY           SKY/WX    TMP DP  RH WIND       PRES   REMARKS
GILLETTE       PTCLDY     7   0  73 NW12      30.29R WCI  -9
SHERIDAN       SUNNY     10   3  73 W6        30.31F
CODY           CLOUDY    12  10  92 CALM      30.21F
YELLOWSTONE LA PTSUNNY   10   7  88 CALM      30.15S
SALMON         CLOUDY    21  16  81 E7        30.26S WCI  12
MULLAN PASS    LGT SNOW  21  18  88 S7        30.02S VSB 2    WCI  12
SAND POINT     CLOUDY    32  30  92 E6        30.16F WCI  26
SPOKANE        CLOUDY    30  28  92 NE5       30.12F WCI  25

$$



USA.gov is the U.S. government's official web portal to all federal, state and local government web resources and services.